Milford, UT

1:27 AM MST on January 16, 2018 (GMT -0700)
Milford Municipal

Weather History for KMLF - November, 2013

Change the Weather History Date:

Thursday, November 14, 2013

  Actual Average Record
Temperature  
Mean Temperature 41 °F -  
Max Temperature 61 °F 49 °F 73 °F (2016)
Min Temperature 21 °F 23 °F 9 °F (2000)
Degree Days  
Heating Degree Days 24    
Moisture  
Dew Point 15 °F    
Average Humidity 36    
Maximum Humidity 72    
Minimum Humidity 4    
Precipitation  
Precipitation 0.00 in - - ()
Sea Level Pressure  
Sea Level Pressure 30.02 in    
Wind  
Wind Speed 5 mph (SSW)    
Max Wind Speed 21 mph    
Max Gust Speed 25 mph    
Visibility 10 miles    
Events      
Averages and records for this station are not official NWS values.
T = Trace of Precipitation, MM = Missing Value Source: NWS Daily Summary

Daily Weather History Graph

Daily Weather History Graph

Search for Another Location

Airport or City:

Trip Planner

Search our weather history database for the weather conditions in past years. The results will help you decide how hot, cold, wet, or windy it might be!

Date:

Astronomy

Nov. 14, 2013 Rise Set
Actual Time 7:12 AM MST 5:19 PM MST
Civil Twilight 6:44 AM MST 5:47 PM MST
Nautical Twilight 6:12 AM MST 6:19 PM MST
Astronomical Twilight 5:41 AM MST 6:51 PM MST
Moon 3:41 PM MST (11/14) 4:14 AM MST (11/14)
Length of Visible Light 11h 03m
Length of Day
10h 06m
Waxing Gibbous, 92% of the Moon is Illuminated
Nov 14
Waxing Gibbous
Nov 17
Full
Nov 25
Last Quarter
Dec 2
New
Dec 9
First Quarter

Hourly Weather History & Observations

Time (MST) Temp. Windchill Dew Point Humidity Pressure Visibility Wind Dir Wind Speed Gust Speed Precip Events Conditions
12:52 AM 36.0 °F - 18.0 °F 48% 30.17 in 10.0 mi Calm Calm - N/A   Clear
1:52 AM 30.9 °F - 16.0 °F 54% 30.17 in 10.0 mi Calm Calm - N/A   Clear
2:52 AM 32.0 °F - 19.0 °F 59% 30.16 in 10.0 mi Calm Calm - N/A   Clear
3:52 AM 28.0 °F 24.2 °F 18.0 °F 66% 30.18 in 10.0 mi SW 3.5 mph - N/A   Clear
4:52 AM 24.1 °F - 16.0 °F 71% 30.21 in 10.0 mi Calm Calm - N/A   Clear
5:52 AM 26.1 °F - 17.1 °F 69% 30.21 in 10.0 mi Calm Calm - N/A   Clear
6:52 AM 23.0 °F 13.9 °F 15.1 °F 72% 30.24 in 10.0 mi SSW 8.1 mph - N/A   Clear
7:52 AM 23.0 °F 17.0 °F 14.0 °F 68% 30.23 in 10.0 mi SSE 4.6 mph - N/A   Clear
8:52 AM 36.0 °F 29.6 °F 21.0 °F 55% 30.22 in 10.0 mi South 8.1 mph - N/A   Clear
9:52 AM 44.1 °F 41.5 °F 21.9 °F 42% 30.19 in 10.0 mi South 4.6 mph - N/A   Clear
10:52 AM 50.0 °F - 21.0 °F 32% 30.14 in 10.0 mi Calm Calm - N/A   Clear
11:52 AM 52.0 °F - 16.0 °F 24% 30.09 in 10.0 mi Variable 3.5 mph - N/A   Clear
12:52 PM 55.0 °F - 9.0 °F 16% 30.02 in 10.0 mi Variable 4.6 mph - N/A   Clear
1:52 PM 57.9 °F - 3.0 °F 11% 29.96 in 10.0 mi South 9.2 mph - N/A   Clear
2:52 PM 59.0 °F - 8.1 °F 13% 29.90 in 10.0 mi SSW 15.0 mph - N/A   Clear
3:52 PM 60.1 °F - 12.0 °F 15% 29.87 in 10.0 mi SSW 20.7 mph - N/A   Clear
4:52 PM 57.0 °F - 16.0 °F 20% 29.86 in 10.0 mi SSW 13.8 mph 21.9 mph N/A   Clear
5:52 PM 53.1 °F - 10.9 °F 19% 29.85 in 10.0 mi SSW 17.3 mph 23.0 mph N/A   Clear
6:52 PM 53.1 °F - 14.0 °F 21% 29.85 in 10.0 mi South 18.4 mph 25.3 mph N/A   Clear
7:52 PM 48.9 °F - 15.1 °F 26% 29.87 in 10.0 mi SSW 16.1 mph - N/A   Clear
8:52 PM 46.0 °F 41.0 °F 15.1 °F 29% 29.83 in 10.0 mi South 10.4 mph - N/A   Clear
9:52 PM 45.0 °F 38.5 °F 15.1 °F 30% 29.79 in 10.0 mi South 13.8 mph - N/A   Clear
10:52 PM 39.9 °F 32.5 °F 15.1 °F 36% 29.77 in 10.0 mi SSW 12.7 mph - N/A   Clear
11:52 PM 43.0 °F 36.8 °F 16.0 °F 34% 29.73 in 10.0 mi South 11.5 mph - N/A   Clear